Terug naar catalogus

PRETTY

ActiefWetenschapSSO
NORAD 58023·PAYLOAD·🇮🇱 Israel

Gelanceerd Oct 9, 2023 vanaf Guiana Space Centre

Loading…

Volgende Passages (komende 24 uur)

TLE

VersSource: Space-Track

Epoch: Sep 14, 2026, 11:02 UTC

1 58023U 23155H   26257.46034262  .00004475  00000-0  18354-3 0  9997
2 58023  97.5643 339.9152 0003160  83.7624 276.3974 15.24777910161959

Volg PRETTY in realtime met AllMySat

Download on the App Store